Regional Weather Roundup
Issued by NWS

Home | Current Version | Previous Version | Text Only | Print | Product List | Glossary Off
Versions: 1 2 3 4 5 6 7 8 9 10 11 12 13 14 15 16 17 18 19 20 21 22 23 24 25 26 27 28 29 30 31 32 33 34 35 36 37 38 39 40 41 42 43 44 45 46 47 48 49 50

264
ASUS43 KIND 242000
RWRIN

WEATHER ROUNDUP FOR INDIANA
NATIONAL WEATHER SERVICE INDIANAPOLIS IN
400 PM EDT SUN SEP 24 2017

NOTE: "FAIR" INDICATES FEW OR NO CLOUDS BELOW 12,000 FEET WITH NO
SIGNIFICANT WEATHER AND/OR OBSTRUCTIONS TO VISIBILITY.

* - STATION DOES NOT REPORT WEATHER SUCH AS PRECIPITATION OR FOG.

+ - STATION NOT QUALITY CONTROLLED BY THE NATIONAL WEATHER SERVICE.
    USE DATA WITH CAUTION...ESPECIALLY DEWPOINT AND RELATIVE
    HUMIDITY OBSERVATIONS.

INZ001>003-010>013-019-020-242100-
NORTHWEST INDIANA

CITY           SKY/WX    TMP DP  RH WIND       PRES   REMARKS
GARY /AIRPORT/ MOSUNNY   91  52  25 SE7       30.04F

$$

LMZ046-743>745-242100-
SOUTHERN LAKE MICHIGAN

STATION/POSITION TIME  TEMP    WIND        PRES    WAVE
                       AIR SEA DIR/SP/G            HT
                 (UTC) (F)     (DEG/KT/KT) (MB)    (FT)
BURNS HARBOR     1940   77      10/ 12/ 14 1017.3F
MICHIGAN CITY    1930   86      20/  1/  7   N/A
5NW MICH CITY    1950   77 74   40/  6/ 10   N/A     1

$$

INZ004-005-014>016-021>024-242100-
NORTH CENTRAL INDIANA

CITY           SKY/WX    TMP DP  RH WIND       PRES   REMARKS
GOSHEN         SUNNY     89  55  31 S9        30.07F
SOUTH BEND     SUNNY     90  55  30 SE10      30.07F

$$

INZ006>009-017-018-025>027-242100-
NORTHEAST INDIANA

CITY           SKY/WX    TMP DP  RH WIND       PRES   REMARKS
FORT WAYNE     MOSUNNY   89  56  32 SE10      30.08F
KENDALLVILLE + SUNNY     88  60  38 SE6       30.10S

$$

INZ028-029-035-036-043>045-051>053-242100-
WEST CENTRAL INDIANA

CITY           SKY/WX    TMP DP  RH WIND       PRES   REMARKS
LAFAYETTE      MOSUNNY   88  60  38 CALM      30.02F
TERRE HAUTE    SUNNY     92  53  26 MISG      30.02F

$$

INZ030>032-037>040-046>048-054>057-064-065-242100-
CENTRAL INDIANA

CITY           SKY/WX    TMP DP  RH WIND       PRES   REMARKS
COLUMBUS       MOSUNNY   90  41  18 SE7       30.05S
GREENWOOD *+   SUNNY     93  56  28 S3        30.05F
INDIANAPOLIS   MOSUNNY   90  55  30 SE9       30.04F
-EAGLE CREEK   SUNNY     90  52  27 S8        30.04F
KOKOMO +       SUNNY     88  58  36 SE8       30.06F
MT COMFORT *+  MOSUNNY   90  55  31 SE7G16    30.06F
SHELBYVILLE    MOSUNNY   90  53  28 E6        30.04F

$$

INZ033-034-041-042-049-050-058-059-242100-
EAST CENTRAL INDIANA

CITY           SKY/WX    TMP DP  RH WIND       PRES   REMARKS
MUNCIE         SUNNY     92  48  22 SE8G16    30.06F
RICHMOND +     SUNNY     88  52  29 SE8G17    30.09F

$$

INZ060-061-067>069-081>083-085>088-242100-
SOUTHWEST INDIANA

CITY           SKY/WX    TMP DP  RH WIND       PRES   REMARKS
EVANSVILLE     MOSUNNY   90  62  39 E6        30.00F
HUNTINGBURG +  SUNNY     89  68  49 E12       30.01F

$$

INZ062-063-066-070>080-084-089>092-242100-
SOUTH CENTRAL AND SOUTHEAST INDIANA

CITY           SKY/WX    TMP DP  RH WIND       PRES   REMARKS
BLOOMINGTON    MOSUNNY   90  57  32 E10       30.04F
MADISON *+     SUNNY     88  52  29 E7        30.07F
SEYMOUR +      SUNNY     93  59  31 SE7       30.04F

$$





USA.gov is the U.S. government's official web portal to all federal, state and local government web resources and services.